Grand Junction, CO

8:48 AM MST on January 24, 2017 (GMT -0700)
Walker

Weather History for KGJT - October, 2011

Change the Weather History Date:

Monday, October 24, 2011

  Actual Average Record
Temperature  
Mean Temperature 57 °F 50 °F  
Max Temperature 73 °F 63 °F 77 °F (1992)
Min Temperature 40 °F 37 °F 18 °F (1975)
Degree Days  
Heating Degree Days 8 15  
Month to date heating degree days 219 254  
Since 1 July heating degree days 229 328  
Cooling Degree Days 0 0  
Month to date cooling degree days 10 1  
Year to date cooling degree days 1222 1123  
Growing Degree Days 6 (Base 50)    
Moisture  
Dew Point 24 °F    
Average Humidity 34    
Maximum Humidity 51    
Minimum Humidity 17    
Precipitation  
Precipitation 0.00 in 0.03 in 0.39 in (1921)
Month to date precipitation 0.39 0.84  
Year to date precipitation 8.28 7.88  
Snow  
Snow 0.00 in 0.00 in 3.40 in (1975)
Month to date snowfall 0.0 0.2  
Since 1 July snowfall 0.0 0.2  
Since 1 September snowfall 0.0 0.2  
Snow Depth 0.00 in    
Sea Level Pressure  
Sea Level Pressure 29.99 in    
Wind  
Wind Speed 7 mph (ESE)    
Max Wind Speed 14 mph    
Max Gust Speed 18 mph    
Visibility 10 miles    
Events      
T = Trace of Precipitation, MM = Missing Value Source: NWS Daily Summary

Daily Weather History Graph

Daily Weather History Graph

Search for Another Location

Airport or City:

Trip Planner

Search our weather history database for the weather conditions in past years. The results will help you decide how hot, cold, wet, or windy it might be!

Date:

Astronomy

Oct. 24, 2011 Rise Set
Actual Time 7:32 AM MDT 6:23 PM MDT
Civil Twilight 7:05 AM MDT 6:50 PM MDT
Nautical Twilight 6:34 AM MDT 7:21 PM MDT
Astronomical Twilight 6:03 AM MDT 7:52 PM MDT
Moon 4:56 AM MDT 4:49 PM MDT
Length of Visible Light 11h 44m
Length of Day
10h 50m
Waning Crescent, 7% of the Moon is Illuminated
Oct 24
Waning Crescent
Oct 26
New
Nov 2
First Quarter
Nov 10
Full
Nov 18
Last Quarter

Hourly Weather History & Observations

Time (MDT) Temp. Windchill Dew Point Humidity Pressure Visibility Wind Dir Wind Speed Gust Speed Precip Events Conditions
12:53 AM 50.0 °F - 26.1 °F 39% 30.08 in 10.0 mi ESE 11.5 mph - N/A   Clear
1:53 AM 48.0 °F - 25.0 °F 41% 30.08 in 10.0 mi SE 10.4 mph - N/A   Clear
2:53 AM 44.1 °F 40.8 °F 24.1 °F 45% 30.08 in 10.0 mi East 5.8 mph - N/A   Clear
3:53 AM 43.0 °F 39.5 °F 25.0 °F 49% 30.07 in 10.0 mi East 5.8 mph - N/A   Clear
4:53 AM 43.0 °F 38.8 °F 25.0 °F 49% 30.06 in 10.0 mi SE 6.9 mph - N/A   Clear
5:53 AM 42.1 °F 36.6 °F 25.0 °F 51% 30.06 in 10.0 mi ESE 9.2 mph - N/A   Clear
6:53 AM 42.1 °F 35.2 °F 24.1 °F 49% 30.08 in 10.0 mi ESE 12.7 mph - N/A   Clear
7:53 AM 41.0 °F 37.1 °F 24.1 °F 51% 30.09 in 10.0 mi South 5.8 mph - N/A   Clear
8:53 AM 46.9 °F - 25.0 °F 42% 30.12 in 10.0 mi SE 8.1 mph - N/A   Clear
9:53 AM 53.1 °F - 24.1 °F 32% 30.09 in 10.0 mi South 10.4 mph - N/A   Clear
10:53 AM 57.9 °F - 25.0 °F 28% 30.07 in 10.0 mi Variable 4.6 mph - N/A   Clear
11:53 AM 62.1 °F - 23.0 °F 22% 30.04 in 10.0 mi South 4.6 mph - N/A   Clear
12:53 PM 66.0 °F - 21.0 °F 18% 29.98 in 10.0 mi WNW 4.6 mph - N/A   Clear
1:53 PM 69.1 °F - 24.1 °F 18% 29.93 in 10.0 mi WNW 6.9 mph - N/A   Clear
2:53 PM 71.1 °F - 26.1 °F 19% 29.90 in 10.0 mi NW 10.4 mph - N/A   Clear
3:53 PM 72.0 °F - 24.1 °F 17% 29.88 in 10.0 mi West 9.2 mph - N/A   Clear
4:53 PM 72.0 °F - 24.1 °F 17% 29.85 in 10.0 mi NW 13.8 mph - N/A   Clear
5:53 PM 68.0 °F - 26.1 °F 21% 29.86 in 10.0 mi WNW 3.5 mph - N/A   Clear
6:53 PM 61.0 °F - 25.0 °F 25% 29.88 in 10.0 mi Calm Calm - N/A   Clear
7:53 PM 55.9 °F - 24.1 °F 29% 29.91 in 10.0 mi ENE 3.5 mph - N/A   Clear
8:53 PM 55.0 °F - 23.0 °F 29% 29.91 in 10.0 mi ENE 6.9 mph - N/A   Clear
9:53 PM 53.6 °F - 23.0 °F 30% 30.01 in 10.0 mi Calm Calm - N/A   Clear
10:53 PM 59.0 °F - 24.1 °F 26% 29.89 in 10.0 mi Variable 3.5 mph - N/A   Scattered Clouds
11:53 PM 60.1 °F - 24.1 °F 25% 29.86 in 10.0 mi SE 5.8 mph - N/A   Scattered Clouds